SCP
0 0 0 0 0 0 0 0 0 0 0 0 0 0 0 0 0 0 0 0 0 1 1 1 1 1 1 1 1 1 1 1 1 1 1 1 0 0 0 0 0 0 0 0 0 0 0 0 0
0 0 0 0 0 0 0 0 0 0 0 0 0 0 0 0 0 0 0 0 1 1 1 1 1 1 1 1 1 1 1 1 1 1 1 1 1 0 0 0 0 0 0 0 0 0 0 0 0
0 0 0 0 0 0 0 0 0 0 0 0 0 0 0 0 0 0 0 0 1 1 1 1 1 1 1 1 1 1 1 1 1 1 1 1 1 1 0 0 0 0 0 0 0 0 0 0 0
0 0 0 0 0 0 0 0 0 0 0 0 0 0 0 0 0 0 0 1 1 1 1 1 1 1 1 1 1 1 1 1 1 1 1 1 1 1 0 0 0 0 0 0 0 0 0 0 0
0 0 0 0 0 0 0 0 0 0 0 0 0 0 0 0 0 0 1 1 1 1 1 1 1 1 1 1 1 1 1 1 1 1 1 1 1 1 1 0 0 0 0 0 0 0 0 0 0
0 0 0 0 0 0 0 0 0 0 0 0 0 0 0 0 0 0 1 1 1 1 1 1 1 1 1 1 1 1 1 1 1 1 1 1 1 1 1 1 0 0 0 0 0 0 0 0 0
0 0 -0 0 0 0 0 0 0 0 0 0 0 0 0 0 0 1 1 1 1 1 1 1 1 1 1 1 1 1 1 1 1 1 1 1 1 1 1 1 0 0 0 0 0 0 0 0 0
0 -0 -0 -0 0 0 0 0 0 0 0 0 0 0 0 0 1 1 1 1 1 1 1 1 1 1 1 1 1 1 1 1 1 1 1 1 1 1 1 1 1 0 0 0 0 0 0 0 0
0 0 -0 0 0 0 0 0 0 0 0 0 0 0 0 1 1 1 1 1 1 1 1 1 1 1 1 1 1 1 1 1 1 1 1 1 1 1 1 1 1 0 0 0 0 0 0 0 0
0 0 0 0 0 0 0 0 0 0 0 0 0 0 0 1 1 1 1 1 1 1 1 1 1 1 1 1 1 1 1 1 1 1 1 1 1 1 1 1 1 1 0 0 0 0 0 0 0
0 0 0 0 0 0 0 0 0 0 0 0 0 0 1 1 1 1 1 1 1 1 1 1 1 1 1 1 1 1 1 1 1 1 1 1 1 1 1 1 1 1 0 0 0 0 0 0 0
0 0 0 0 0 0 0 0 0 0 0 0 0 0 1 1 1 1 1 1 1 1 1 1 1 1 1 1 1 1 1 1 1 1 1 1 1 1 1 1 1 1 0 0 0 0 0 0 0
0 0 0 0 0 0 0 0 0 0 0 0 0 0 1 1 1 1 1 1 1 1 1 1 1 2 2 2 2 1 1 1 1 1 1 1 1 1 1 1 1 1 1 1 0 0 0 0 0
0 0 0 0 0 0 0 0 0 0 0 0 0 1 1 1 1 1 1 1 1 1 1 2 2 2 2 2 2 2 1 1 1 1 1 1 1 1 1 1 1 1 1 1 1 1 0 0 0
-0 0 0 0 0 0 0 0 0 0 0 0 0 1 1 1 1 1 1 1 1 1 2 2 2 2 2 2 2 2 1 1 1 1 1 1 1 1 1 1 1 1 1 1 1 1 1 1 0
0 0 0 0 0 0 0 0 0 0 0 0 0 1 1 1 1 1 1 1 1 2 2 2 2 2 2 2 2 2 1 1 1 1 1 1 1 1 1 1 1 1 1 1 1 1 1 1 1
0 0 0 0 0 0 0 0 0 0 0 0 0 0 1 1 1 1 1 1 2 2 2 2 2 2 2 2 2 2 1 1 1 1 1 1 1 1 1 1 1 1 1 1 1 1 1 1 1
0 0 0 0 0 0 0 0 0 0 0 0 0 0 1 1 1 1 1 1 2 2 2 2 2 2 2 2 2 1 1 1 1 1 1 1 1 1 1 1 1 1 1 1 1 1 1 1 1
0 0 0 0 0 0 0 0 0 0 0 0 0 0 0 1 1 1 1 1 1 1 2 2 2 2 2 2 2 1 1 1 1 1 1 1 1 1 1 1 1 1 1 1 1 1 1 0 0
0 0 0 0 0 0 0 0 0 0 0 0 0 0 0 0 1 1 1 1 1 1 1 1 2 2 2 2 1 1 1 1 1 1 1 1 1 1 1 1 1 1 1 1 1 1 0 0 0
0 0 0 0 0 0 0 0 0 0 0 0 0 0 0 0 1 1 1 1 1 1 1 1 1 1 1 1 1 1 1 1 1 1 0 0 0 0 0 0 0 1 1 0 0 0 0 0 0
0 0 0 0 0 0 0 0 0 0 0 0 0 0 0 0 0 1 1 1 1 1 1 1 1 1 1 1 1 1 1 1 1 0 0 0 0 0 0 0 0 0 0 0 0 0 0 0 0
0 0 0 0 0 0 0 0 0 0 0 0 0 0 0 0 0 0 1 1 1 1 1 1 1 1 1 1 1 1 1 1 0 0 0 0 0 0 0 0 0 0 0 0 0 0 0 0 0
0 0 0 0 0 0 0 0 0 0 0 0 0 0 0 0 0 0 0 1 1 1 1 1 1 1 1 1 1 1 1 0 0 0 0 0 0 0 0 0 0 0 0 0 0 0 0 0 0
0 0 0 0 0 0 0 0 0 0 0 0 0 0 0 0 0 0 0 0 0 0 0 1 1 1 1 1 1 0 0 0 0 0 0 0 0 0 0 0 0 0 0 0 0 0 0 0 0
0 0 0 0 0 0 0 0 0 0 0 0 0 0 0 0 0 0 0 0 0 0 0 0 0 0 0 0 0 0 0 0 0 0 0 0 0 0 0 0 0 0 0 0 0 0 0 0 0
0 0 0 0 0 0 0 0 0 0 0 0 0 0 0 0 0 0 0 0 0 0 0 0 0 0 0 0 0 0 0 0 0 0 0 0 0 0 0 0 0 0 0 0 0 0 0 0 0
0 0 0 0 0 0 0 0 0 0 0 0 0 0 0 0 0 0 0 0 0 0 0 0 0 0 0 0 0 0 0 0 0 0 0 0 0 0 0 0 0 0 0 0 0 0 0 0 0
0 0 0 0 0 0 0 0 0 0 0 0 0 0 0 0 0 0 0 0 0 0 0 0 0 0 0 0 0 0 0 0 0 0 0 0 0 0 0 0 0 0 0 0 0 0 0 0 0
0 0 0 0 0 0 0 0 0 0 0 0 0 0 0 0 0 0 0 0 0 0 0 0 0 0 0 0 0 0 0 0 0 0 0 0 0 0 0 0 0 0 0 0 0 0 0 0 0
Wind_Speed
8 6 7 6 9 9 10 4 2 2 1 2 2 4 4 5 5 4 5 9 13 17 19 19 15 14 14 15 15 16 16 16 16 16 15 14 13 12 11 11 11 10 10 10 11 11 11 11 11
5 5 7 7 10 11 9 5 5 2 2 2 2 4 5 3 1 2 6 11 15 18 18 18 17 15 15 15 16 16 17 17 17 16 16 15 14 12 12 11 11 10 10 10 10 11 11 10 10
5 7 8 8 13 13 7 3 3 1 2 4 3 3 4 2 1 2 7 14 16 17 18 19 19 17 16 16 16 17 17 17 17 17 16 15 14 12 12 11 11 11 10 10 10 10 10 10 9
6 7 7 11 16 13 10 5 3 5 5 5 6 4 3 1 1 4 12 16 17 18 18 20 19 18 17 17 16 17 17 17 17 16 15 14 14 13 12 12 11 11 10 10 10 10 9 8 8
7 7 11 14 17 12 8 8 7 9 7 6 7 6 3 3 2 8 13 16 17 18 18 21 18 17 17 17 16 16 16 16 15 15 15 14 12 12 12 11 11 11 10 10 10 9 8 7 7
7 7 11 13 13 10 9 9 10 11 10 8 7 9 3 5 6 10 13 15 17 18 18 19 19 19 17 17 15 15 15 14 14 14 14 13 12 11 11 11 11 10 10 10 9 8 7 6 6
9 9 12 12 9 9 7 7 9 10 10 8 7 8 3 6 7 10 13 14 16 17 18 19 19 18 17 15 14 14 14 14 14 13 13 13 12 12 12 11 10 10 10 9 9 8 7 6 5
7 7 11 10 9 7 4 5 6 8 8 5 6 8 4 7 9 11 12 13 15 16 16 18 18 18 17 16 15 15 14 14 14 14 14 14 13 12 12 12 10 10 10 9 8 7 6 5 4
7 9 9 7 6 5 3 6 5 5 7 6 6 7 3 7 11 12 12 13 14 14 15 16 17 16 16 16 16 15 14 13 13 13 13 13 12 12 11 10 11 10 9 9 8 7 6 6 7
8 9 6 2 5 5 5 6 5 6 9 8 6 4 3 8 11 13 14 15 15 16 16 15 16 16 15 12 13 11 12 12 11 10 12 10 7 7 8 12 10 9 9 9 8 7 8 10 8
7 7 2 4 6 7 8 7 6 9 9 6 5 4 6 8 11 12 13 14 15 15 14 15 15 14 14 10 11 8 7 9 11 11 11 7 7 6 6 7 9 9 10 9 10 10 8 6 3
6 6 5 6 4 7 8 8 8 8 8 5 6 5 6 9 10 10 11 12 12 13 14 13 14 12 12 10 9 8 7 7 7 9 10 8 6 6 6 5 7 7 6 5 6 5 5 5 4
9 6 6 7 9 9 9 10 9 8 6 5 4 3 5 7 7 7 7 8 10 11 12 12 12 11 10 8 7 8 7 7 7 6 8 8 6 7 6 5 4 6 5 6 5 4 4 5 5
4 6 8 9 8 7 9 8 8 5 4 3 2 2 3 4 4 5 6 7 8 9 10 10 10 11 10 8 7 6 6 5 5 6 7 8 6 5 6 5 5 4 4 4 4 4 4 3 2
6 9 9 6 5 4 6 8 6 2 3 3 2 1 1 1 2 3 4 5 6 7 8 8 10 9 9 9 8 5 4 5 5 5 5 6 5 5 5 4 4 3 3 4 4 4 3 3 3
8 9 7 4 3 3 9 6 4 1 3 2 1 1 2 2 1 1 2 3 4 5 5 6 6 8 8 7 7 5 5 5 4 4 4 5 5 5 4 4 4 3 3 4 3 3 3 2 2
8 6 4 3 3 3 7 4 3 2 1 1 0 1 2 3 3 3 2 2 3 3 4 5 5 5 5 5 5 5 4 4 4 3 3 4 5 4 4 3 3 4 3 3 3 3 3 3 2
3 4 4 3 2 4 6 4 1 1 0 0 1 2 2 3 4 4 3 3 3 2 3 4 4 4 5 4 4 4 4 3 3 3 3 4 4 4 3 2 3 4 3 3 3 3 3 3 3
5 7 6 3 1 4 4 3 2 1 1 0 1 2 2 4 5 5 4 4 3 3 2 3 4 4 4 4 4 4 4 4 3 3 4 5 5 4 4 3 3 3 3 3 4 4 5 4 4
7 8 6 2 2 4 4 4 3 2 1 1 1 2 2 4 5 5 5 4 3 2 2 2 3 3 3 3 3 3 4 4 4 3 4 5 5 4 3 4 3 3 3 4 4 3 3 3 2
7 7 6 4 4 7 6 7 7 5 3 3 2 2 3 4 4 4 5 5 3 3 2 1 2 2 2 3 4 5 4 4 4 3 3 4 5 5 4 4 4 3 3 3 3 3 3 3 2
7 4 7 7 9 7 8 7 6 6 5 4 3 3 4 5 5 5 5 6 5 3 2 3 3 3 3 3 4 6 5 5 4 3 3 5 6 6 5 5 5 4 3 4 3 2 2 3 3
7 6 8 9 10 10 9 10 4 6 6 4 5 5 5 5 6 6 6 6 5 4 3 3 4 4 4 3 5 5 5 5 5 5 7 6 7 7 7 7 6 6 5 5 5 4 3 2 2
6 7 8 10 10 11 8 8 4 4 4 4 5 6 5 6 6 6 7 7 6 6 5 5 5 6 5 5 6 6 8 8 8 8 7 6 6 7 9 9 8 7 7 7 7 6 8 6 6
8 9 7 8 9 7 2 6 1 2 2 3 6 7 7 6 6 7 7 8 7 7 6 6 7 7 7 7 7 8 8 8 9 8 7 7 6 7 8 8 8 7 7 8 7 8 8 8 7
6 9 9 9 8 5 4 4 3 5 5 6 7 8 7 7 7 8 8 8 7 7 7 6 8 8 9 9 9 9 9 7 7 8 8 8 7 8 8 9 9 9 8 8 8 8 8 7 8
7 7 8 10 11 10 5 2 4 5 6 7 8 8 7 8 8 8 8 8 8 8 8 8 9 10 10 10 11 11 10 10 10 9 9 8 8 8 9 9 10 9 9 8 7 7 7 7 7
8 7 5 8 8 9 6 6 3 7 7 7 7 7 8 8 8 8 8 8 8 8 9 10 10 11 11 11 10 10 11 11 10 10 11 10 10 10 10 10 10 9 9 8 7 8 8 7 7
6 7 7 8 7 9 8 1 6 2 6 8 7 8 9 9 8 8 8 8 8 9 9 10 11 11 12 12 12 13 12 11 11 11 10 9 10 9 9 9 9 9 8 7 7 8 7 7 7
6 7 7 8 8 9 9 2 6 4 6 8 9 9 9 9 8 9 9 9 9 10 10 10 10 11 12 12 12 12 12 12 11 12 11 10 10 9 9 9 9 8 8 7 7 7 7 7 7
Wind_Direction
252 225 227 238 244 239 248 226 235 217 197 17 316 292 302 307 322 23 93 157 159 152 146 149 145 143 141 141 141 141 141 141 141 141 141 140 139 137 135 133 130 128 125 124 121 118 116 115 115
261 211 226 237 250 244 233 223 227 255 20 340 243 253 268 267 343 75 130 151 156 151 151 155 146 146 143 141 140 141 143 143 142 142 143 143 143 140 139 138 134 131 129 128 125 122 119 118 118
220 227 240 237 240 250 251 205 230 194 240 257 258 247 270 299 127 136 138 152 155 152 154 148 151 149 146 144 143 144 146 146 145 146 147 147 146 144 143 142 138 134 132 131 127 124 123 124 123
207 209 230 243 242 242 260 252 252 254 241 244 261 245 214 27 93 129 142 155 156 156 156 149 156 152 150 149 148 148 148 148 148 149 149 149 149 147 146 145 141 139 136 133 129 126 126 127 126
228 228 227 237 245 248 250 262 265 259 251 243 247 257 240 126 137 133 150 159 160 159 157 153 157 154 154 154 153 151 150 150 150 150 150 150 149 148 148 147 145 142 139 135 132 130 127 126 125
212 227 235 239 242 241 244 249 248 252 254 248 246 254 251 122 151 150 156 164 163 160 157 151 158 158 158 159 158 155 152 151 151 151 150 150 151 149 148 148 147 144 140 138 135 134 130 125 123
233 232 247 254 259 242 241 248 246 252 250 251 252 254 210 147 149 154 159 166 166 164 158 157 162 163 163 163 162 158 155 153 153 152 152 153 153 152 152 150 149 146 143 142 141 140 137 133 131
253 246 245 246 253 248 217 239 242 262 267 276 256 251 230 142 153 157 160 167 166 167 164 163 166 166 169 169 168 164 160 158 158 158 158 156 155 156 157 160 152 152 150 149 149 148 147 146 146
236 242 242 240 250 249 217 242 240 262 261 253 248 266 7 134 158 163 163 168 168 170 170 170 168 170 174 171 165 169 165 164 163 165 163 168 175 167 171 157 150 159 157 155 155 156 160 171 170
225 242 252 283 271 275 265 263 269 252 242 238 233 223 170 169 174 178 176 174 173 176 177 175 171 173 177 172 165 177 177 172 185 175 176 191 178 175 168 134 159 166 164 164 164 168 186 217 191
226 256 277 247 258 278 275 267 257 255 252 261 276 252 190 190 191 193 188 182 178 177 179 178 175 177 178 174 172 181 183 174 190 183 185 187 178 177 173 164 169 177 181 185 168 191 206 210 212
235 247 259 267 269 262 268 271 260 256 271 309 308 283 212 203 202 198 195 186 179 179 181 181 176 180 188 182 179 185 185 178 189 184 187 187 190 184 185 187 178 180 187 185 192 205 192 209 202
235 245 252 257 257 262 266 260 263 265 281 294 300 269 213 206 206 196 193 185 179 179 180 181 180 177 188 188 188 187 188 185 185 184 194 194 191 193 182 185 186 196 178 180 202 202 184 202 198
257 268 263 261 259 245 249 249 243 257 289 292 288 253 208 198 195 185 183 182 182 180 181 178 182 176 185 190 194 186 192 185 185 193 193 202 201 192 186 183 185 196 187 190 191 184 186 203 196
262 261 248 229 233 223 242 232 220 278 292 266 251 193 148 161 177 183 182 183 184 183 181 183 186 180 186 192 192 181 189 189 189 190 190 198 205 192 189 177 181 187 180 177 192 182 188 187 179
235 240 231 153 206 201 245 235 118 352 275 253 241 118 99 82 62 90 172 176 178 182 176 185 188 182 183 184 187 182 190 188 184 182 185 192 199 193 186 181 180 181 185 183 179 187 187 183 187
213 243 255 166 178 224 247 265 85 20 297 245 173 93 89 84 60 36 47 116 158 168 174 185 182 176 176 174 181 179 179 180 170 170 177 178 187 188 189 185 173 189 183 182 194 167 181 168 153
273 270 254 255 152 250 249 248 174 92 320 195 119 90 74 70 60 42 48 71 94 118 148 165 166 155 151 161 166 160 154 149 143 147 156 160 163 170 172 170 178 187 171 163 153 149 152 146 149
294 282 275 272 233 266 251 240 216 180 212 114 64 69 89 79 69 55 53 65 85 101 117 145 151 146 157 164 170 162 154 138 127 121 130 133 130 141 154 149 152 164 153 145 151 159 152 146 145
265 269 264 232 190 260 253 246 216 196 183 77 57 68 73 78 74 64 57 67 66 78 108 117 133 150 161 160 164 153 132 119 104 101 99 106 116 122 131 132 135 132 131 140 151 165 172 151 181
260 275 289 276 248 234 236 233 206 185 174 149 115 88 78 72 69 61 52 49 55 54 53 82 92 121 125 130 135 129 123 122 121 118 101 87 96 97 102 121 119 120 132 143 148 168 187 167 158
274 288 279 261 254 244 242 264 204 188 190 173 138 106 85 75 68 58 49 44 42 40 50 68 82 93 102 125 143 147 143 132 126 118 104 91 84 84 89 97 102 104 104 110 120 126 155 161 159
301 309 274 264 263 267 240 258 213 184 208 183 136 108 94 78 71 63 52 46 44 46 52 63 77 81 90 109 137 137 124 115 111 108 101 87 76 77 81 84 90 91 87 89 93 94 84 99 115
278 266 255 249 249 251 252 261 244 190 212 164 132 119 100 82 76 69 62 57 51 48 55 63 70 72 77 86 98 114 119 120 117 110 104 89 80 75 76 81 81 82 82 83 85 86 82 76 75
245 264 256 238 232 244 221 260 309 68 79 145 141 126 106 93 78 68 59 52 48 49 52 61 72 69 71 79 83 92 103 111 109 109 104 97 87 80 77 80 79 79 82 83 84 83 79 80 81
259 269 278 288 288 285 227 248 83 77 84 104 117 117 108 92 77 67 59 53 49 49 54 64 74 75 74 78 80 84 88 90 89 90 93 89 86 82 83 82 80 78 80 81 81 84 83 80 79
264 257 291 285 278 277 253 196 139 127 126 123 123 120 109 94 84 76 67 59 54 53 54 64 76 78 79 81 84 84 84 85 90 90 88 88 88 86 80 79 79 78 77 78 81 81 81 82 84
275 295 270 266 280 280 263 243 204 170 166 149 139 126 112 101 91 81 72 68 62 62 67 71 76 79 80 83 86 87 85 86 88 87 85 85 84 83 83 80 78 76 76 77 80 87 81 82 77
224 234 254 274 282 285 285 7 44 141 164 152 139 124 112 102 96 89 82 77 74 74 76 78 81 83 84 85 87 87 86 85 84 84 81 82 82 81 81 81 80 80 82 83 82 86 91 88 87
272 272 262 265 270 272 288 23 55 86 133 139 132 119 111 107 101 95 89 85 81 78 78 79 82 86 89 91 91 91 91 88 86 84 81 80 79 78 79 82 82 83 82 82 86 90 91 91 89